Regional Weather Roundup
Issued by NWS

Home | Current Version | Previous Version | Graphics & Text | Print | Product List | Glossary On
Versions: 1 2 3 4 5 6 7 8 9 10 11 12 13 14 15 16 17 18 19 20 21 22 23 24 25 26 27
000
ASUS45 KSLC 311210
RWRUT

UTAH REGIONAL WEATHER ROUNDUP
NATIONAL WEATHER SERVICE SALT LAKE CITY UT
600 AM MDT WED AUG 31 2016

UTZ001>011-023>025-311300-

NORTHERN UTAH

CITY           SKY/WX    TMP DP  RH WIND       PRES   REMARKS
BRIGHAM CITY     N/A     56  42  57 CALM      30.06R
HILL AFB       PTCLDY    69  31  24 E16       30.08R
LOGAN          MOCLDY    57  44  62 CALM      30.07R
OGDEN          PTCLDY    68  31  25 S9        30.05R
PROVO AIRPORT  NOT AVBL
SALT LAKE CITY PTCLDY    77  35  21 SE18      30.04R
VERNAL         CLEAR     52  36  54 W6        30.21R
WENDOVER       PTCLDY    66  32  28 CALM      30.03R
HEBER CITY     CLEAR     46  36  66 CALM      30.20S
WEST JORDAN    CLEAR     73  38  28 S15       30.09R

$$

UTZ012>022-026-027-311300-

SOUTHERN/CENTRAL UTAH

CITY           SKY/WX    TMP DP  RH WIND       PRES   REMARKS
BLANDING       CLEAR     60  44  55 CALM      30.35R
BRYCE CANYON   CLEAR     43  36  76 W8        30.36S
CEDAR CITY     CLEAR     62  32  32 S3        30.17S
DELTA          CLEAR     64  34  32 S9        30.10S
MILFORD        CLEAR     57  38  48 SW5       30.12S
MOAB/CYNLANDS  CLEAR     62  33  33 CALM      30.14R
PRICE          CLEAR     57  30  35 E6        30.23R
ST GEORGE      SUNNY     75  39  27 S6        30.01R

$$

REGIONAL REPORTS     COLORADO/ARIZONA

CITY           SKY/WX    TMP DP  RH WIND       PRES   REMARKS
CRAIG, CO      CLEAR     45  37  73 CALM      30.29R
GRAND JUNCTION CLEAR     62  43  49 E6        30.18R
RIFLE          CLEAR     55  46  71 SE5       30.26R
MONTROSE       CLEAR     54  44  69 SE8       30.29R
CORTEZ         CLOUDY    56  49  77 NE6       30.28S
PAGE, AZ       CLEAR     67  40  37 CALM      30.11S
GRAND CANYON   CLEAR     47  42  83 CALM      30.28S
KINGMAN        CLEAR     70  46  42 SE10      30.01R
FLAGSTAFF      CLEAR     46  42  86 CALM      30.31R

$$

REGIONAL REPORTS    NEVADA/IDAHO/WYOMING

CITY           SKY/WX    TMP DP  RH WIND       PRES   REMARKS
LAS VEGAS, NV  PTCLDY    86  37  17 S3        29.85S
ELY            CLEAR     53  27  36 S10       30.19S
ELKO           PTCLDY    55  30  38 CALM      30.06S
POCATELLO, ID  CLOUDY    48  38  68 N6        30.04S
BURLEY         MOCLDY    53  45  74 CALM      29.98S
EVANSTON, WY   CLOUDY    59  25  27 E7        30.29S
ROCK SPRINGS   CLOUDY    55  36  48 E7        30.29S

$$




USA.gov is the U.S. government's official web portal to all federal, state and local government web resources and services.